Погода в Эгирдире

Турция     37°52′31″N   30°49′44″E
темп.,
°C
ветер,
м/с
пор.,
м/с
влажн.,
%
обл.,
%
осадки,
мм/ч
давл.,
гПа
погр.,
м
8 мая, сб
сб800:00+16юз334388 0.0 101673
03:00+15ююз224799 0.0 101570
06:00+15зюз224299 0.0 101470
09:00+21ююз2335100 0.0 1014318
12:00+23ююз4634100 0.0 1014977
15:00+24ю5733100 0.0 10121267
18:00+21ююв3344100 0.1 1012495
21:00+16ююз455527 0.2 1013184
9 мая, вс
вс900:00+14юз34580 0.0 1014120
03:00+13зюз11594 0.0 101385
06:00+12с44700 0.0 1015161
09:00+13с55736 0.0 1018571
12:00+16ссв66551 0.0 10181084
15:00+18с66385 0.0 10161298
18:00+17ссв77365 0.0 10161371
21:00+12св79392 0.0 1019571
10 мая, пн
пн1000:00+10ссв68480 0.0 1020526
03:00+9ссв68520 0.0 1019473
06:00+7ссв67580 0.0 1020370
09:00+9ссв66580 0.0 1019604
12:00+15ссв66370 0.0 1017985
15:00+17ссв66300 0.0 10161131
18:00+17ссв76290 0.0 1015940
21:00+13св56340 0.0 1016312
11 мая, вт
вт1100:00+10ссв55410 0.0 1017236
03:00+9с55450 0.0 1016203
06:00+8с55460 0.0 1016209
09:00+12ссв45410 0.0 1015482
12:00+17ссв34290 0.0 1013918
15:00+20ссв22220 0.0 10111437
18:00+20св23240 0.0 10101199
21:00+15с22380 0.0 1011150
12 мая, ср
ср1200:00+14с33420 0.0 101296
03:00+12ссз22450 0.0 1011114
06:00+11ссз11490 0.0 101191
09:00+17ю11350 0.0 1011403
12:00+20юз24280 0.0 10101332
15:00+23юз45200 0.0 10082125
18:00+22ю663035 0.0 1008814
21:00+16ююз4441100 0.0 1011132